Year,Month,Day,Hour,Minute,Value (Times are PST for windspeed in km/hr)
2007,11,12,00,00,13.10
2007,11,12,00,01,15.20
2007,11,12,00,02,18.50
2007,11,12,00,03,19.60
2007,11,12,00,04,14.70
2007,11,12,00,05,14.80
2007,11,12,00,06,13.40
2007,11,12,00,07,15.50
2007,11,12,00,08,10.20
2007,11,12,00,09,15.60
2007,11,12,00,10,13.00
2007,11,12,00,11,23.70
2007,11,12,00,12,24.60
2007,11,12,00,13,22.20
2007,11,12,00,14,19.70
2007,11,12,00,15,21.60
2007,11,12,00,16,21.20
2007,11,12,00,17,18.20
2007,11,12,00,18,22.80
2007,11,12,00,19,16.30
2007,11,12,00,20,21.60
2007,11,12,00,21,20.50
2007,11,12,00,22,17.00
2007,11,12,00,23,13.40
2007,11,12,00,24,20.30
2007,11,12,00,25,18.90
2007,11,12,00,26,20.80
2007,11,12,00,27,22.50
2007,11,12,00,28,21.20
2007,11,12,00,29,22.00
2007,11,12,00,30,25.00
2007,11,12,00,31,22.10
2007,11,12,00,32,22.70
2007,11,12,00,33,20.20
2007,11,12,00,34,23.10
2007,11,12,00,35,21.10
2007,11,12,00,36,18.00
2007,11,12,00,37,15.00
2007,11,12,00,38,16.50
2007,11,12,00,39,17.20
2007,11,12,00,40,21.70
2007,11,12,00,41,16.30
2007,11,12,00,42,19.40
2007,11,12,00,43,14.90
2007,11,12,00,44,12.50
2007,11,12,00,45,17.20
2007,11,12,00,46,14.00
2007,11,12,00,47,14.60
2007,11,12,00,48,14.70
2007,11,12,00,49,16.20
2007,11,12,00,50,16.40
2007,11,12,00,51,19.10
2007,11,12,00,52,13.80
2007,11,12,00,53,15.60
2007,11,12,00,54,13.30
2007,11,12,00,55,16.70
2007,11,12,00,56,18.70
2007,11,12,00,57,16.90
2007,11,12,00,58,18.50
2007,11,12,00,59,11.90
2007,11,12,01,00,16.30
2007,11,12,01,01,20.10
2007,11,12,01,02,17.20
2007,11,12,01,03,13.00
2007,11,12,01,04,19.20
2007,11,12,01,05,17.00
2007,11,12,01,06,14.20
2007,11,12,01,07,16.00
2007,11,12,01,08,17.00
2007,11,12,01,09,13.00
2007,11,12,01,10,15.40
2007,11,12,01,11,12.40
2007,11,12,01,12,14.20
2007,11,12,01,13,11.60
2007,11,12,01,14,11.90
2007,11,12,01,15,13.90
2007,11,12,01,16,15.00
2007,11,12,01,17,12.20
2007,11,12,01,18,11.60
2007,11,12,01,19,11.60
2007,11,12,01,20,13.70
2007,11,12,01,21,13.30
2007,11,12,01,22,11.70
2007,11,12,01,23,9.00
2007,11,12,01,24,12.30
2007,11,12,01,25,11.90
2007,11,12,01,26,13.00
2007,11,12,01,27,20.30
2007,11,12,01,28,17.50
2007,11,12,01,29,16.40
2007,11,12,01,30,19.10
2007,11,12,01,31,19.50
2007,11,12,01,32,17.80
2007,11,12,01,33,20.50
2007,11,12,01,34,14.00
2007,11,12,01,35,27.10
2007,11,12,01,36,20.20
2007,11,12,01,37,31.10
2007,11,12,01,38,21.10
2007,11,12,01,39,23.50
2007,11,12,01,40,23.80
2007,11,12,01,41,18.70
2007,11,12,01,42,21.40
2007,11,12,01,43,24.70
2007,11,12,01,44,21.50
2007,11,12,01,45,24.20
2007,11,12,01,46,30.40
2007,11,12,01,47,22.30
2007,11,12,01,48,23.10
2007,11,12,01,49,19.70
2007,11,12,01,50,20.30
2007,11,12,01,51,18.90
2007,11,12,01,52,21.30
2007,11,12,01,53,19.50
2007,11,12,01,54,17.10
2007,11,12,01,55,14.40
2007,11,12,01,56,12.30
2007,11,12,01,57,16.90
2007,11,12,01,58,15.00
2007,11,12,01,59,17.40
2007,11,12,02,00,21.90
2007,11,12,02,01,21.30
2007,11,12,02,02,23.40
2007,11,12,02,03,22.00
2007,11,12,02,04,19.80
2007,11,12,02,05,18.90
2007,11,12,02,06,19.60
2007,11,12,02,07,22.10
2007,11,12,02,08,16.60
2007,11,12,02,09,22.90
2007,11,12,02,10,19.00
2007,11,12,02,11,15.50
2007,11,12,02,12,10.80
2007,11,12,02,13,20.90
2007,11,12,02,14,22.00
2007,11,12,02,15,14.20
2007,11,12,02,16,16.10
2007,11,12,02,17,14.80
2007,11,12,02,18,19.10
2007,11,12,02,19,13.40
2007,11,12,02,20,16.20
2007,11,12,02,21,17.20
2007,11,12,02,22,14.10
2007,11,12,02,23,18.90
2007,11,12,02,24,16.20
2007,11,12,02,25,13.00
2007,11,12,02,26,14.80
2007,11,12,02,27,17.60
2007,11,12,02,28,21.70
2007,11,12,02,29,15.50
2007,11,12,02,30,15.20
2007,11,12,02,31,18.20
2007,11,12,02,32,15.60
2007,11,12,02,33,16.20
2007,11,12,02,34,17.20
2007,11,12,02,35,22.00
2007,11,12,02,36,15.30
2007,11,12,02,37,21.10
2007,11,12,02,38,17.50
2007,11,12,02,39,18.60
2007,11,12,02,40,14.30
2007,11,12,02,41,16.20
2007,11,12,02,42,15.90
2007,11,12,02,43,19.50
2007,11,12,02,44,11.40
2007,11,12,02,45,12.80
2007,11,12,02,46,14.00
2007,11,12,02,47,17.90
2007,11,12,02,48,13.00
2007,11,12,02,49,13.40
2007,11,12,02,50,16.90
2007,11,12,02,51,21.20
2007,11,12,02,52,17.10
2007,11,12,02,53,17.10
2007,11,12,02,54,11.30
2007,11,12,02,55,12.30
2007,11,12,02,56,13.40
2007,11,12,02,57,14.70
2007,11,12,02,58,20.20
2007,11,12,02,59,14.80
2007,11,12,03,00,14.30
2007,11,12,03,01,15.10
2007,11,12,03,02,25.30
2007,11,12,03,03,21.30
2007,11,12,03,04,12.60
2007,11,12,03,05,15.40
2007,11,12,03,06,22.50
2007,11,12,03,07,15.70
2007,11,12,03,08,23.70
2007,11,12,03,09,29.00
2007,11,12,03,10,17.00
2007,11,12,03,11,14.70
2007,11,12,03,12,17.10
2007,11,12,03,13,18.10
2007,11,12,03,14,19.20
2007,11,12,03,15,22.60
2007,11,12,03,16,18.90
2007,11,12,03,17,22.60
2007,11,12,03,18,20.80
2007,11,12,03,19,25.40
2007,11,12,03,20,18.30
2007,11,12,03,21,22.80
2007,11,12,03,22,13.20
2007,11,12,03,23,15.20
2007,11,12,03,24,11.30
2007,11,12,03,25,13.80
2007,11,12,03,26,12.50
2007,11,12,03,27,10.10
2007,11,12,03,28,19.60
2007,11,12,03,29,15.20
2007,11,12,03,30,13.80
2007,11,12,03,31,16.40
2007,11,12,03,32,25.80
2007,11,12,03,33,28.00
2007,11,12,03,34,22.40
2007,11,12,03,35,24.40
2007,11,12,03,36,23.20
2007,11,12,03,37,20.40
2007,11,12,03,38,23.00
2007,11,12,03,39,18.20
2007,11,12,03,40,19.40
2007,11,12,03,41,19.40
2007,11,12,03,42,17.40
2007,11,12,03,43,21.40
2007,11,12,03,44,19.60
2007,11,12,03,45,24.60
2007,11,12,03,46,17.20
2007,11,12,03,47,15.60
2007,11,12,03,48,12.90
2007,11,12,03,49,21.60
2007,11,12,03,50,16.70
2007,11,12,03,51,20.80
2007,11,12,03,52,19.80
2007,11,12,03,53,18.40
2007,11,12,03,54,12.40
2007,11,12,03,55,9.70
2007,11,12,03,56,7.30
2007,11,12,03,57,17.50
2007,11,12,03,58,13.90
2007,11,12,03,59,11.50
2007,11,12,04,00,14.60
2007,11,12,04,01,15.00
2007,11,12,04,02,13.90
2007,11,12,04,03,19.80
2007,11,12,04,04,15.90
2007,11,12,04,05,14.20
2007,11,12,04,06,12.00
2007,11,12,04,07,9.30
2007,11,12,04,08,15.40
2007,11,12,04,09,12.70
2007,11,12,04,10,15.90
2007,11,12,04,11,10.80
2007,11,12,04,12,9.70
2007,11,12,04,13,6.90
2007,11,12,04,14,5.00
2007,11,12,04,15,5.40
2007,11,12,04,16,5.30
2007,11,12,04,17,5.30
2007,11,12,04,18,6.30
2007,11,12,04,19,12.30
2007,11,12,04,20,9.10
2007,11,12,04,21,15.00
2007,11,12,04,22,12.60
2007,11,12,04,23,13.10
2007,11,12,04,24,19.00
2007,11,12,04,25,25.30
2007,11,12,04,26,22.40
2007,11,12,04,27,29.50
2007,11,12,04,28,24.60
2007,11,12,04,29,24.10
2007,11,12,04,30,28.70
2007,11,12,04,31,24.90
2007,11,12,04,32,27.10
2007,11,12,04,33,27.40
2007,11,12,04,34,28.00
2007,11,12,04,35,29.00
2007,11,12,04,36,34.40
2007,11,12,04,37,29.20
2007,11,12,04,38,25.50
2007,11,12,04,39,20.60
2007,11,12,04,40,27.30
2007,11,12,04,41,26.90
2007,11,12,04,42,29.80
2007,11,12,04,43,25.20
2007,11,12,04,44,24.10
2007,11,12,04,45,20.00
2007,11,12,04,46,19.20
2007,11,12,04,47,20.90
2007,11,12,04,48,25.00
2007,11,12,04,49,18.30
2007,11,12,04,50,17.90
2007,11,12,04,51,23.60
2007,11,12,04,52,18.70
2007,11,12,04,53,26.80
2007,11,12,04,54,14.80
2007,11,12,04,55,19.50
2007,11,12,04,56,21.30
2007,11,12,04,57,14.30
2007,11,12,04,58,20.00
2007,11,12,04,59,23.40
2007,11,12,05,00,26.60
2007,11,12,05,01,23.10
2007,11,12,05,02,24.90
2007,11,12,05,03,24.70
2007,11,12,05,04,29.60
2007,11,12,05,05,23.30
2007,11,12,05,06,23.50
2007,11,12,05,07,23.00
2007,11,12,05,08,18.90
2007,11,12,05,09,28.60
2007,11,12,05,10,28.70
2007,11,12,05,11,37.30
2007,11,12,05,12,26.00
2007,11,12,05,13,30.60
2007,11,12,05,14,28.60
2007,11,12,05,15,24.30
2007,11,12,05,16,28.40
2007,11,12,05,17,34.20
2007,11,12,05,18,36.60
2007,11,12,05,19,27.90
2007,11,12,05,20,23.80
2007,11,12,05,21,28.30
2007,11,12,05,22,25.70
2007,11,12,05,23,27.40
2007,11,12,05,24,27.00
2007,11,12,05,25,26.50
2007,11,12,05,26,26.30
2007,11,12,05,27,29.00
2007,11,12,05,28,24.90
2007,11,12,05,29,23.50
2007,11,12,05,30,34.20
2007,11,12,05,31,35.60
2007,11,12,05,32,37.90
2007,11,12,05,33,29.10
2007,11,12,05,34,32.60
2007,11,12,05,35,30.70
2007,11,12,05,36,34.70
2007,11,12,05,37,36.20
2007,11,12,05,38,28.60
2007,11,12,05,39,33.60
2007,11,12,05,40,30.00
2007,11,12,05,41,29.90
2007,11,12,05,42,27.70
2007,11,12,05,43,27.40
2007,11,12,05,44,35.90
2007,11,12,05,45,35.80
2007,11,12,05,46,31.30
2007,11,12,05,47,37.00
2007,11,12,05,48,33.50
2007,11,12,05,49,31.00
2007,11,12,05,50,39.40
2007,11,12,05,51,39.90
2007,11,12,05,52,37.50
2007,11,12,05,53,35.00
2007,11,12,05,54,33.10
2007,11,12,05,55,38.40
2007,11,12,05,56,35.20
2007,11,12,05,57,35.40
2007,11,12,05,58,39.70
2007,11,12,05,59,28.60
2007,11,12,06,00,32.40
2007,11,12,06,01,37.70
2007,11,12,06,02,27.50
2007,11,12,06,03,32.20
2007,11,12,06,04,29.30
2007,11,12,06,05,33.10
2007,11,12,06,06,36.20
2007,11,12,06,07,40.80
2007,11,12,06,08,30.20
2007,11,12,06,09,30.20
2007,11,12,06,10,39.00
2007,11,12,06,11,34.50
2007,11,12,06,12,38.50
2007,11,12,06,13,37.90
2007,11,12,06,14,35.90
2007,11,12,06,15,41.30
2007,11,12,06,16,38.80
2007,11,12,06,17,32.90
2007,11,12,06,18,40.10
2007,11,12,06,19,39.80
2007,11,12,06,20,36.70
2007,11,12,06,21,40.10
2007,11,12,06,22,42.40
2007,11,12,06,23,45.00
2007,11,12,06,24,43.40
2007,11,12,06,25,23.10
2007,11,12,06,26,37.30
2007,11,12,06,27,40.90
2007,11,12,06,28,47.60
2007,11,12,06,29,33.20
2007,11,12,06,30,34.40
2007,11,12,06,31,38.10
2007,11,12,06,32,33.60
2007,11,12,06,33,41.00
2007,11,12,06,34,42.50
2007,11,12,06,35,33.30
2007,11,12,06,36,29.60
2007,11,12,06,37,43.60
2007,11,12,06,38,46.70
2007,11,12,06,39,46.70
2007,11,12,06,40,34.90
2007,11,12,06,41,40.10
2007,11,12,06,42,37.50
2007,11,12,06,43,37.50
2007,11,12,06,44,40.60
2007,11,12,06,45,34.40
2007,11,12,06,46,46.70
2007,11,12,06,47,47.20
2007,11,12,06,48,38.30
2007,11,12,06,49,30.40
2007,11,12,06,50,35.50
2007,11,12,06,51,34.00
2007,11,12,06,52,40.90
2007,11,12,06,53,43.70
2007,11,12,06,54,39.00
2007,11,12,06,55,41.00
2007,11,12,06,56,35.10
2007,11,12,06,57,41.70
2007,11,12,06,58,43.20
2007,11,12,06,59,36.90
2007,11,12,07,00,38.20
2007,11,12,07,01,46.30
2007,11,12,07,02,32.80
2007,11,12,07,03,34.00
2007,11,12,07,04,35.60
2007,11,12,07,05,43.20
2007,11,12,07,06,41.20
2007,11,12,07,07,40.10
2007,11,12,07,08,49.50
2007,11,12,07,09,41.00
2007,11,12,07,10,33.00
2007,11,12,07,11,31.90
2007,11,12,07,12,42.30
2007,11,12,07,13,34.90
2007,11,12,07,14,32.70
2007,11,12,07,15,34.80
2007,11,12,07,16,34.40
2007,11,12,07,17,36.50
2007,11,12,07,18,49.30
2007,11,12,07,19,38.10
2007,11,12,07,20,39.70
2007,11,12,07,21,41.80
2007,11,12,07,22,38.50
2007,11,12,07,23,29.10
2007,11,12,07,24,32.20
2007,11,12,07,25,35.10
2007,11,12,07,26,45.10
2007,11,12,07,27,41.20
2007,11,12,07,28,39.00
2007,11,12,07,29,38.60
2007,11,12,07,30,44.60
2007,11,12,07,31,42.20
2007,11,12,07,32,49.60
2007,11,12,07,33,36.10
2007,11,12,07,34,36.90
2007,11,12,07,35,49.00
2007,11,12,07,36,40.70
2007,11,12,07,37,48.50
2007,11,12,07,38,45.00
2007,11,12,07,39,45.70
2007,11,12,08,38,19.30
2007,11,12,08,39,25.70
2007,11,12,08,40,21.00
2007,11,12,08,41,21.30
2007,11,12,08,42,25.70
2007,11,12,08,43,17.90
2007,11,12,08,44,18.50
2007,11,12,08,45,16.80
2007,11,12,08,46,22.40
2007,11,12,08,47,22.90
2007,11,12,08,48,17.30
2007,11,12,08,49,13.80
2007,11,12,11,27,26.00
2007,11,12,11,28,10.80
2007,11,12,11,29,17.00
2007,11,12,11,30,11.40
2007,11,12,11,31,12.30
2007,11,12,11,32,19.20
2007,11,12,11,33,13.40
2007,11,12,11,34,14.30
2007,11,12,11,35,16.60
2007,11,12,11,36,16.90
2007,11,12,11,37,17.60
2007,11,12,11,38,14.40
2007,11,12,11,39,13.00
2007,11,12,11,40,16.50
2007,11,12,11,41,9.70
2007,11,12,11,42,3.70
2007,11,12,11,43,3.50
2007,11,12,11,44,6.00
2007,11,12,11,45,8.20
2007,11,12,11,46,7.90
2007,11,12,11,47,8.70
2007,11,12,11,48,11.10
2007,11,12,11,49,7.40
2007,11,12,11,50,7.20
2007,11,12,11,51,10.50
2007,11,12,11,52,8.80
2007,11,12,11,53,6.80
2007,11,12,11,54,15.00
2007,11,12,11,55,10.70
2007,11,12,11,56,15.30
2007,11,12,11,57,11.90
2007,11,12,11,58,23.00
2007,11,12,11,59,16.60
2007,11,12,12,00,17.90
2007,11,12,12,01,25.00
2007,11,12,12,02,21.60
2007,11,12,12,03,19.20
2007,11,12,12,04,12.70
2007,11,12,12,05,9.70
2007,11,12,12,06,6.10
2007,11,12,12,07,10.80
2007,11,12,12,08,11.70
2007,11,12,12,09,10.30
2007,11,12,12,10,5.60
2007,11,12,12,11,6.60
2007,11,12,12,12,10.60
2007,11,12,12,13,8.90
2007,11,12,12,14,13.80
2007,11,12,12,15,6.50
2007,11,12,12,16,10.30
2007,11,12,12,17,12.00
2007,11,12,12,18,10.20
2007,11,12,12,19,13.00
2007,11,12,12,20,14.60
2007,11,12,12,21,16.60
2007,11,12,12,22,17.80
2007,11,12,12,23,17.60
2007,11,12,12,24,15.40
2007,11,12,12,25,12.80
2007,11,12,12,26,11.90
2007,11,12,12,27,16.00
2007,11,12,12,28,16.30
2007,11,12,12,29,10.90
2007,11,12,12,30,10.50
2007,11,12,12,31,12.80
2007,11,12,12,32,16.50
2007,11,12,12,33,15.20
2007,11,12,12,34,19.60
2007,11,12,12,35,13.30
2007,11,12,12,36,16.90
2007,11,12,12,37,14.90
2007,11,12,12,38,22.40
2007,11,12,12,39,27.10
2007,11,12,12,40,22.10
2007,11,12,12,41,22.40
2007,11,12,12,42,21.60
2007,11,12,12,43,22.10
2007,11,12,12,44,31.50
2007,11,12,12,45,27.90
2007,11,12,12,46,30.30
2007,11,12,12,47,27.50
2007,11,12,12,48,24.50
2007,11,12,12,49,37.20
2007,11,12,12,50,38.40
2007,11,12,12,51,29.80
2007,11,12,12,52,36.00
2007,11,12,12,53,29.90
2007,11,12,12,54,21.90
2007,11,12,12,55,37.60
2007,11,12,12,56,24.60
2007,11,12,12,57,25.70
2007,11,12,12,58,28.80
2007,11,12,12,59,27.70
2007,11,12,13,00,37.10
2007,11,12,13,01,27.20
2007,11,12,13,02,24.60
2007,11,12,13,03,30.10
2007,11,12,13,04,23.00
2007,11,12,13,05,30.90
2007,11,12,13,06,28.30
2007,11,12,13,07,18.20
2007,11,12,13,08,23.60
2007,11,12,13,09,25.10
2007,11,12,13,10,29.20
2007,11,12,13,11,25.70
2007,11,12,13,12,22.30
2007,11,12,13,13,19.70
2007,11,12,13,14,18.80
2007,11,12,13,15,20.40
2007,11,12,13,16,16.60
2007,11,12,13,17,18.20
2007,11,12,13,18,14.90
2007,11,12,13,19,9.30
2007,11,12,13,20,6.20
2007,11,12,13,21,3.50
2007,11,12,13,22,2.70
2007,11,12,13,23,10.10
2007,11,12,13,24,6.30
2007,11,12,13,25,9.70
2007,11,12,13,26,4.70
2007,11,12,13,27,6.90
2007,11,12,13,28,5.60
2007,11,12,13,29,5.70
2007,11,12,13,30,12.20
2007,11,12,13,31,15.50
2007,11,12,13,32,15.00
2007,11,12,13,33,15.50
2007,11,12,13,34,14.70
2007,11,12,13,35,10.50
2007,11,12,13,36,13.20
2007,11,12,13,37,7.80
2007,11,12,13,38,12.80
2007,11,12,13,39,16.80
2007,11,12,13,40,11.70
2007,11,12,13,41,15.60
2007,11,12,13,42,14.90
2007,11,12,13,43,15.80
2007,11,12,13,44,19.50
2007,11,12,13,45,18.20
2007,11,12,13,46,18.30
2007,11,12,13,47,14.20
2007,11,12,13,48,14.60
2007,11,12,13,49,12.80
2007,11,12,13,50,15.00
2007,11,12,13,51,16.10
2007,11,12,13,52,20.60
2007,11,12,13,53,21.20
2007,11,12,13,54,18.80
2007,11,12,13,55,18.10
2007,11,12,13,56,13.10
2007,11,12,13,57,24.50
2007,11,12,13,58,23.50
2007,11,12,13,59,15.80
2007,11,12,14,00,21.60
2007,11,12,14,01,17.00
2007,11,12,14,02,22.60
2007,11,12,14,03,14.80
2007,11,12,14,04,17.30
2007,11,12,14,05,22.60
2007,11,12,14,06,24.60
2007,11,12,14,07,25.30
2007,11,12,14,08,24.10
2007,11,12,14,09,27.20
2007,11,12,14,10,24.90
2007,11,12,14,11,24.50
2007,11,12,14,12,26.30
2007,11,12,14,13,33.40
2007,11,12,14,14,24.10
2007,11,12,14,15,15.50
2007,11,12,14,16,28.50
2007,11,12,14,17,24.50
2007,11,12,14,18,23.30
2007,11,12,14,19,25.50
2007,11,12,14,20,24.90
2007,11,12,14,21,27.00
2007,11,12,14,22,31.10
2007,11,12,14,23,26.10
2007,11,12,14,24,26.50
2007,11,12,14,25,21.10
2007,11,12,14,26,27.70
2007,11,12,14,27,27.60
2007,11,12,14,28,23.70
2007,11,12,14,29,27.20
2007,11,12,14,30,22.30
2007,11,12,14,31,22.40
2007,11,12,14,32,24.60
2007,11,12,14,33,27.00
2007,11,12,14,34,26.00
2007,11,12,14,35,22.40
2007,11,12,14,36,26.30
2007,11,12,14,37,20.70
2007,11,12,14,38,19.30
2007,11,12,14,39,23.20
2007,11,12,14,40,20.90
2007,11,12,14,41,18.70
2007,11,12,14,42,24.10
2007,11,12,14,43,23.00
2007,11,12,14,44,28.50
2007,11,12,14,45,24.80
2007,11,12,14,46,23.30
2007,11,12,14,47,27.50
2007,11,12,14,48,19.70
2007,11,12,14,49,17.70
2007,11,12,14,50,18.00
2007,11,12,14,51,17.90
2007,11,12,14,52,19.30
2007,11,12,14,53,17.40
2007,11,12,14,54,24.60
2007,11,12,14,55,24.00
2007,11,12,14,56,27.00
2007,11,12,14,57,24.30
2007,11,12,14,58,22.10
2007,11,12,14,59,24.10
2007,11,12,15,00,22.50
2007,11,12,15,01,24.80
2007,11,12,15,02,27.40
2007,11,12,15,03,23.90
2007,11,12,15,04,20.00
2007,11,12,15,05,26.00
2007,11,12,15,06,23.00
2007,11,12,15,07,26.20
2007,11,12,15,08,25.60
2007,11,12,15,09,26.50
2007,11,12,15,10,27.90
2007,11,12,15,11,31.70
2007,11,12,15,12,32.80
2007,11,12,15,13,20.80
2007,11,12,15,14,29.90
2007,11,12,15,15,26.60
2007,11,12,15,16,19.30
2007,11,12,15,17,18.30
2007,11,12,15,18,12.10
2007,11,12,15,19,13.00
2007,11,12,15,20,10.70
2007,11,12,15,21,16.50
2007,11,12,15,22,13.30
2007,11,12,15,23,27.40
2007,11,12,15,24,18.80
2007,11,12,15,25,21.60
2007,11,12,15,26,20.30
2007,11,12,15,27,22.40
2007,11,12,15,28,20.70
2007,11,12,15,29,18.60
2007,11,12,15,30,26.10
2007,11,12,15,31,23.40
2007,11,12,15,32,23.90
2007,11,12,15,33,22.10
2007,11,12,15,34,25.40
2007,11,12,15,35,24.60
2007,11,12,15,36,26.20
2007,11,12,15,37,24.00
2007,11,12,15,38,22.40
2007,11,12,15,39,24.60
2007,11,12,15,40,18.40
2007,11,12,15,41,20.40
2007,11,12,15,42,19.80
2007,11,12,15,43,18.30
2007,11,12,15,44,21.20
2007,11,12,15,45,14.90
2007,11,12,15,46,12.60
2007,11,12,15,47,17.40
2007,11,12,15,48,11.40
2007,11,12,15,49,11.30
2007,11,12,15,50,12.10
2007,11,12,15,51,9.00
2007,11,12,15,52,8.60
2007,11,12,15,53,6.20
2007,11,12,15,54,8.30
2007,11,12,15,55,6.80
2007,11,12,15,56,2.50
2007,11,12,15,57,4.80
2007,11,12,15,58,6.80
2007,11,12,15,59,4.60
2007,11,12,16,00,5.90
2007,11,12,16,01,4.90
2007,11,12,16,02,4.90
2007,11,12,16,03,4.00
2007,11,12,16,04,12.60
2007,11,12,16,05,12.00
2007,11,12,16,06,4.80
2007,11,12,16,07,5.00
2007,11,12,16,08,6.50
2007,11,12,16,09,11.60
2007,11,12,16,10,10.50
2007,11,12,16,11,13.70
2007,11,12,16,12,18.70
2007,11,12,16,13,23.80
2007,11,12,16,14,18.20
2007,11,12,16,15,20.40
2007,11,12,16,16,20.60
2007,11,12,16,17,23.50
2007,11,12,16,18,21.50
2007,11,12,16,19,19.80
2007,11,12,16,20,27.80
2007,11,12,16,21,26.30
2007,11,12,16,22,21.60
2007,11,12,16,23,30.30
2007,11,12,16,24,20.90
2007,11,12,16,25,22.90
2007,11,12,16,26,20.00
2007,11,12,16,27,22.90
2007,11,12,16,28,20.80
2007,11,12,16,29,17.90
2007,11,12,16,30,18.70
2007,11,12,16,31,17.30
2007,11,12,16,32,18.00
2007,11,12,16,33,18.10
2007,11,12,16,34,20.90
2007,11,12,16,35,24.50
2007,11,12,16,36,22.90
2007,11,12,16,37,22.60
2007,11,12,16,38,22.30
2007,11,12,16,39,20.20
2007,11,12,16,40,18.90
2007,11,12,16,41,17.20
2007,11,12,16,42,26.10
2007,11,12,16,43,20.20
2007,11,12,16,44,18.40
2007,11,12,16,45,22.70
2007,11,12,16,46,19.60
2007,11,12,16,47,16.10
2007,11,12,16,48,19.10
2007,11,12,16,49,19.10
2007,11,12,16,50,18.60
2007,11,12,16,51,13.00
2007,11,12,16,52,12.50
2007,11,12,16,53,11.10
2007,11,12,16,54,10.30
2007,11,12,16,55,9.20
2007,11,12,16,56,7.70
2007,11,12,16,57,6.10
2007,11,12,16,58,7.20
2007,11,12,16,59,7.90
2007,11,12,17,00,13.00
2007,11,12,17,01,17.90
2007,11,12,17,02,11.70
2007,11,12,17,03,8.30
2007,11,12,17,04,13.50
2007,11,12,17,05,10.80
2007,11,12,17,06,4.50
2007,11,12,17,07,1.70
2007,11,12,17,08,4.80
2007,11,12,17,09,4.40
2007,11,12,17,10,3.20
2007,11,12,17,11,1.10
2007,11,12,17,12,1.20
2007,11,12,17,13,0.50
2007,11,12,17,14,0.70
2007,11,12,17,15,0.30
2007,11,12,17,16,1.50
2007,11,12,17,17,1.10
2007,11,12,17,18,2.60
2007,11,12,17,19,0.50
2007,11,12,17,20,0.50
2007,11,12,17,21,2.20
2007,11,12,17,22,2.90
2007,11,12,17,23,1.60
2007,11,12,17,24,2.20
2007,11,12,17,25,1.60
2007,11,12,17,26,2.30
2007,11,12,17,27,0.60
2007,11,12,17,28,0.70
2007,11,12,17,29,3.20
2007,11,12,17,30,1.60
2007,11,12,17,31,2.20
2007,11,12,17,32,3.10
2007,11,12,17,33,4.00
2007,11,12,17,34,6.80
2007,11,12,17,35,6.20
2007,11,12,17,36,7.70
2007,11,12,17,37,4.80
2007,11,12,17,38,5.30
2007,11,12,17,39,3.90
2007,11,12,17,40,1.60
2007,11,12,17,41,1.40
2007,11,12,17,42,2.00
2007,11,12,17,43,1.50
2007,11,12,17,44,1.50
2007,11,12,17,45,0.10
2007,11,12,17,46,1.70
2007,11,12,17,47,4.80
2007,11,12,17,48,9.30
2007,11,12,17,49,4.50
2007,11,12,17,50,5.90
2007,11,12,17,51,1.10
2007,11,12,17,52,0.10
2007,11,12,17,53,0.00
2007,11,12,17,54,2.50
2007,11,12,17,55,1.50
2007,11,12,17,56,3.40
2007,11,12,17,57,3.30
2007,11,12,17,58,3.10
2007,11,12,17,59,2.90
2007,11,12,18,00,3.10
2007,11,12,18,01,4.20
2007,11,12,18,02,2.10
2007,11,12,18,03,0.00
2007,11,12,18,04,0.00
2007,11,12,18,05,0.00
2007,11,12,18,06,0.00
2007,11,12,18,07,0.00
2007,11,12,18,08,0.00
2007,11,12,18,09,0.00
2007,11,12,18,10,0.00
2007,11,12,18,11,0.00
2007,11,12,18,12,0.00
2007,11,12,18,13,0.00
2007,11,12,18,14,0.10
2007,11,12,18,15,0.00
2007,11,12,18,16,0.00
2007,11,12,18,17,0.10
2007,11,12,18,18,0.90
2007,11,12,18,19,0.30
2007,11,12,18,20,1.50
2007,11,12,18,21,0.30
2007,11,12,18,22,1.30
2007,11,12,18,23,0.10
2007,11,12,18,24,0.90
2007,11,12,18,25,1.60
2007,11,12,18,26,3.50
2007,11,12,18,27,1.60
2007,11,12,18,28,3.40
2007,11,12,18,29,3.90
2007,11,12,18,30,4.30
2007,11,12,18,31,5.60
2007,11,12,18,32,6.20
2007,11,12,18,33,5.50
2007,11,12,18,34,5.00
2007,11,12,18,35,3.40
2007,11,12,18,36,5.10
2007,11,12,18,37,6.70
2007,11,12,18,38,5.40
2007,11,12,18,39,3.90
2007,11,12,18,40,4.20
2007,11,12,18,41,6.60
2007,11,12,18,42,7.40
2007,11,12,18,43,5.80
2007,11,12,18,44,4.70
2007,11,12,18,45,2.60
2007,11,12,18,46,4.80
2007,11,12,18,47,10.10
2007,11,12,18,48,11.30
2007,11,12,18,49,13.00
2007,11,12,18,50,15.00
2007,11,12,18,51,16.20
2007,11,12,18,52,17.50
2007,11,12,18,53,18.60
2007,11,12,18,54,15.20
2007,11,12,18,55,22.70
2007,11,12,18,56,22.60
2007,11,12,18,57,21.60
2007,11,12,18,58,18.00
2007,11,12,18,59,23.00
2007,11,12,19,00,21.40
2007,11,12,19,01,19.30
2007,11,12,19,02,21.80
2007,11,12,19,03,16.60
2007,11,12,19,04,18.10
2007,11,12,19,05,12.80
2007,11,12,19,06,17.10
2007,11,12,19,07,20.10
2007,11,12,19,08,16.30
2007,11,12,19,09,19.50
2007,11,12,19,10,15.00
2007,11,12,19,11,12.30
2007,11,12,19,12,10.80
2007,11,12,19,13,13.70
2007,11,12,19,14,18.00
2007,11,12,19,15,18.60
2007,11,12,19,16,14.80
2007,11,12,19,17,17.10
2007,11,12,19,18,15.50
2007,11,12,19,19,15.20
2007,11,12,19,20,15.60
2007,11,12,19,21,16.30
2007,11,12,19,22,17.40
2007,11,12,19,23,11.50
2007,11,12,19,24,11.30
2007,11,12,19,25,11.20
2007,11,12,19,26,13.00
2007,11,12,19,27,12.60
2007,11,12,19,28,10.60
2007,11,12,19,29,9.90
2007,11,12,19,30,12.10
2007,11,12,19,31,9.30
2007,11,12,19,32,12.10
2007,11,12,19,33,14.10
2007,11,12,19,34,7.40
2007,11,12,19,35,11.70
2007,11,12,19,36,9.70
2007,11,12,19,37,8.90
2007,11,12,19,38,11.80
2007,11,12,19,39,10.00
2007,11,12,19,40,10.10
2007,11,12,19,41,8.10
2007,11,12,19,42,6.30
2007,11,12,19,43,5.80
2007,11,12,19,44,6.10
2007,11,12,19,45,5.70
2007,11,12,19,46,5.80
2007,11,12,19,47,8.30
2007,11,12,19,48,7.00
2007,11,12,19,49,9.30
2007,11,12,19,50,6.80
2007,11,12,19,51,11.30
2007,11,12,19,52,6.60
2007,11,12,19,53,6.90
2007,11,12,19,54,8.60
2007,11,12,19,55,7.50
2007,11,12,19,56,8.00
2007,11,12,19,57,6.90
2007,11,12,19,58,6.00
2007,11,12,19,59,6.50
2007,11,12,20,00,5.10
2007,11,12,20,01,5.80
2007,11,12,20,02,5.00
2007,11,12,20,03,1.00
2007,11,12,20,04,3.80
2007,11,12,20,05,2.10
2007,11,12,20,06,0.50
2007,11,12,20,07,0.00
2007,11,12,20,08,4.00
2007,11,12,20,09,5.00
2007,11,12,20,10,4.30
2007,11,12,20,11,1.90
2007,11,12,20,12,1.30
2007,11,12,20,13,1.00
2007,11,12,20,14,0.20
2007,11,12,20,15,0.10
2007,11,12,20,16,0.00
2007,11,12,20,17,0.00
2007,11,12,20,18,0.20
2007,11,12,20,19,1.60
2007,11,12,20,20,0.40
2007,11,12,20,21,0.40
2007,11,12,20,22,1.80
2007,11,12,20,23,1.10
2007,11,12,20,24,3.60
2007,11,12,20,25,6.80
2007,11,12,20,26,11.20
2007,11,12,20,27,8.70
2007,11,12,20,28,10.40
2007,11,12,20,29,11.30
2007,11,12,20,30,11.30
2007,11,12,20,31,11.70
2007,11,12,20,32,10.00
2007,11,12,20,33,10.80
2007,11,12,20,34,17.10
2007,11,12,20,35,10.00
2007,11,12,20,36,7.40
2007,11,12,20,37,4.80
2007,11,12,20,38,3.50
2007,11,12,20,39,2.20
2007,11,12,20,40,5.40
2007,11,12,20,41,5.70
2007,11,12,20,42,3.50
2007,11,12,20,43,3.50
2007,11,12,20,44,2.10
2007,11,12,20,45,0.90
2007,11,12,20,46,5.40
2007,11,12,20,47,7.30
2007,11,12,20,48,4.00
2007,11,12,20,49,5.70
2007,11,12,20,50,5.80
2007,11,12,20,51,3.90
2007,11,12,20,52,3.80
2007,11,12,20,53,4.30
2007,11,12,20,54,7.10
2007,11,12,20,55,7.40
2007,11,12,20,56,5.70
2007,11,12,20,57,7.60
2007,11,12,20,58,8.00
2007,11,12,20,59,7.60
2007,11,12,21,00,5.60
2007,11,12,21,01,5.80
2007,11,12,21,02,6.70
2007,11,12,21,03,9.80
2007,11,12,21,04,7.80